Location: Newark
(25.4800°N, 85.7200°E)
Time: 07:35:20
(UTC+00:00)

Explorer 11/Cluster Stage 4 - All Passes

Search period start: 19 August 2019 00:00
Search period end: 29 August 2019 00:00
Orbit: 467 x 1260 km, 28.8° (Epoch: 18 August)

Date Brightness Start Highest point End Pass type
(mag) Time Alt. Az. Time Alt. Az. Time Alt. Az.
19 Aug - 03:24:31 10° SSW 03:30:31 23° SSE 03:36:33 10° E daylight
19 Aug - 05:11:30 10° SW 05:19:34 57° SSE 05:27:05 10° E daylight
19 Aug - 07:00:52 10° W 07:09:00 81° NNW 07:16:00 10° ENE daylight
19 Aug - 08:51:06 10° W 08:58:33 66° N 09:04:35 10° E daylight
19 Aug - 10:41:08 10° WNW 10:47:43 86° SSW 10:52:53 10° ESE daylight
19 Aug - 12:31:20 10° W 12:35:58 28° SSW 12:39:50 10° SSE daylight
20 Aug - 03:13:14 10° SSW 03:19:39 26° SSE 03:26:10 10° E daylight
20 Aug - 05:00:34 10° WSW 05:08:43 64° SSE 05:16:28 10° E daylight
20 Aug - 06:50:03 10° W 06:58:16 77° N 07:05:26 10° ENE daylight
20 Aug - 08:40:16 10° W 08:47:54 68° N 08:54:09 10° E daylight
20 Aug - 10:30:17 10° WNW 10:37:06 78° SSW 10:42:27 10° ESE daylight
20 Aug - 12:20:44 10° W 12:25:17 24° SSW 12:29:07 10° SSE daylight
21 Aug - 03:02:06 10° SSW 03:08:45 30° SSE 03:15:40 10° E daylight
21 Aug - 04:49:41 10° WSW 04:57:52 70° SSE 05:05:49 10° ENE daylight
21 Aug - 06:39:14 10° W 06:47:31 74° N 06:54:52 10° ENE daylight
21 Aug - 08:29:25 10° WNW 08:37:14 71° N 08:43:42 10° E daylight
21 Aug - 10:19:26 10° WNW 10:26:25 70° SSW 10:31:58 10° ESE daylight
21 Aug - 12:10:11 10° W 12:14:35 21° SW 12:18:21 10° SSE daylight
22 Aug - 02:51:03 10° SSW 02:57:52 34° SSE 03:05:06 10° E daylight
22 Aug - 04:38:53 10° WSW 04:47:02 77° SSE 04:55:07 10° ENE daylight
22 Aug - 06:28:28 10° W 06:36:46 72° N 06:44:17 10° ENE daylight
22 Aug - 08:18:34 10° WNW 08:26:33 74° N 08:33:14 10° E daylight
22 Aug - 10:08:35 10° WNW 10:15:44 63° SSW 10:21:27 10° ESE daylight
22 Aug - 11:59:42 10° WSW 12:03:51 19° SW 12:07:28 10° S daylight
23 Aug - 00:56:52 10° SSE 00:58:33 11° SE 01:00:16 10° SE daylight
23 Aug - 02:40:05 10° SW 02:46:59 39° SSE 02:54:28 10° E daylight
23 Aug - 04:28:06 10° WSW 04:36:12 83° SSE 04:44:24 10° ENE daylight
23 Aug - 06:17:42 10° W 06:26:00 71° N 06:33:41 10° E daylight
23 Aug - 08:07:43 10° WNW 08:15:50 78° N 08:22:44 10° E daylight
23 Aug - 09:57:45 10° W 10:05:00 57° SSW 10:10:53 10° SE daylight
23 Aug - 11:49:17 10° WSW 11:53:06 16° SW 11:56:28 10° S daylight
24 Aug - 00:44:45 10° SSE 00:47:42 13° SE 00:50:50 10° ESE daylight
24 Aug - 02:29:12 10° SW 02:36:06 43° SSE 02:43:46 10° E daylight
24 Aug - 04:17:22 10° WSW 04:25:22 88° SSE 04:33:40 10° ENE daylight
24 Aug - 06:06:58 10° W 06:15:14 70° N 06:23:03 10° E daylight
24 Aug - 07:56:53 10° WNW 08:05:06 82° NNE 08:12:11 10° E daylight
24 Aug - 09:46:56 10° W 09:54:15 51° SSW 10:00:16 10° SE daylight
24 Aug - 11:39:01 10° WSW 11:42:19 14° SW 11:45:20 10° S daylight
25 Aug - 00:33:14 10° S 00:36:52 15° SE 00:40:49 10° ESE daylight
25 Aug - 02:18:24 10° SW 02:25:15 49° SSE 02:33:01 10° E daylight
25 Aug - 04:06:42 10° WSW 04:14:33 87° NNW 04:22:54 10° ENE daylight
25 Aug - 05:56:15 10° W 06:04:29 70° N 06:12:25 10° E daylight
25 Aug - 07:46:03 10° WNW 07:54:20 87° NNE 08:01:38 10° ESE daylight
25 Aug - 09:36:07 10° W 09:43:26 45° SSW 09:49:36 10° SE daylight
25 Aug - 11:28:59 10° WSW 11:31:32 12° SW 11:33:55 10° SSW daylight
26 Aug - 00:21:58 10° S 00:26:03 17° SE 00:30:33 10° ESE daylight
26 Aug - 02:07:40 10° SW 02:14:25 54° SSE 02:22:14 10° E daylight
26 Aug - 03:56:03 10° W 04:03:46 82° NNW 04:12:07 10° ENE daylight
26 Aug - 05:45:32 10° W 05:53:43 70° N 06:01:46 10° E daylight
26 Aug - 07:35:13 10° WNW 07:43:33 87° SSW 07:51:02 10° ESE daylight
26 Aug - 09:25:21 10° W 09:32:37 41° SSW 09:38:51 10° SE daylight
26 Aug - 11:19:37 10° SW 11:20:44 10° SW 11:21:49 10° SSW daylight
27 Aug - 00:10:53 10° S 00:15:13 20° SE 00:20:08 10° E daylight
27 Aug - 01:56:59 10° SW 02:03:35 60° SSE 02:11:25 10° E daylight
27 Aug - 03:45:27 10° W 03:52:59 78° N 04:01:19 10° ENE daylight
27 Aug - 05:34:50 10° W 05:42:56 71° N 05:51:05 10° E daylight
27 Aug - 07:24:24 10° WNW 07:32:44 82° SSW 07:40:23 10° ESE daylight
27 Aug - 09:14:37 10° W 09:21:46 36° SSW 09:28:02 10° SSE daylight
27 Aug - 23:59:55 10° SSW 00:04:25 23° SE 00:09:37 10° E daylight
28 Aug - 01:46:20 10° WSW 01:52:48 66° SSE 02:00:35 10° ENE daylight
28 Aug - 03:34:52 10° W 03:42:14 75° N 03:50:30 10° ENE daylight
28 Aug - 05:24:09 10° WNW 05:32:10 73° N 05:40:23 10° E daylight
28 Aug - 07:13:37 10° WNW 07:21:55 76° SSW 07:29:41 10° ESE daylight
28 Aug - 09:03:56 10° W 09:10:54 32° SSW 09:17:09 10° SSE daylight
28 Aug - 23:49:03 10° SSW 23:53:38 25° SSE 23:59:02 10° E daylight
